Location: LewisvilleTX
(33.0462°N, 96.9942°W)
Time: 21:15:38
(UTC+00:00)

N. Korean satellite - Pass Details

Date: 06 December 2021
Orbit: 447 x 490 km, 97.3° (Epoch: 27 January)

Event Time Altitude Azimuth Distance (km) Brightness Sun altitude
Rises 11:47:10 0° 7° (N) 2,451 10.1 -18.5°
Reaches altitude 10° 11:49:13 10° 4° (N) 1,576 9.0 -18.0°
Maximum altitude 11:52:32 61° 283° (WNW) 511 6.3 -17.4°
Drops below altitude 10° 11:55:51 10° 202° (SSW) 1,570 9.1 -16.7°
Sets 11:57:53 0° 199° (SSW) 2,442 10.1 -16.3°
